TOURFACTS.DK  
Stats and Facts from Tour de France.

Tour de France 2019 starts in 348 days
  Riders   Stages   Teams   Summits   Yearly  


 
Search by year

After 2018 - Stage 14:
 15000 starters.
  5163 different riders.
  639 teams.
  2246 stages.
  456 restdays.
  441957.60 km.
  5678 abandonnees.


Top 3
GC
Christopher Froome86:20:55
Rigoberto Urán86:21:49
Romain Bardet86:23:15
Climb
Warren Barguil169 pt.
Primoz Roglic80 pt.
Thomas De Gendt64 pt.
Sprint
Michael Matthews359 pt.
André Greipel234 pt.
Edvald Boasson Hagen220 pt.
Youth
Simon Yates86:27:09
Louis Meintjes86:29:15
Emanuel Buchmann86:54:16
Facts from Tour de France 1935
  |   Stages.  |   Stage winners.  |   Days in yellow  |   Average speed.  |   Route.  |   Teams.  |   All riders.  |   Rookies.  |  

  |   Withdrawls.  |   GC.  |   Polka  |   Green  |   White  |   Summits. (In tour)  |   Miscellaneous.  |  

Stage 4 on July 7th. 1935
         Owning:    Romain Maes    
Pick a stage:  1 2 3 4 5a 5b 6 7 8 9 10 11 12 13a 13b 14a 14b 15 16 17 18a 18b 19a 19b 20a 20b 21
From: Metz    To: BelfortDist:220.00 km.
Cat: Ballon d'AlsaceBELFélicien Vervaecke
10 points
 

Average speed for all riders in stage:  30,775 km./hr.
    Place:Name:Team:Time:Km/h:
BELJean AertsBELBelgium07:00:14  +  00:00:00=31,411 
FRAGustave DanneelsBELBelgium07:00:14  +  00:00:00=31,411 
BELFrançois NeuvilleBELBelgium B07:00:14  +  00:00:00=31,411 
4 GEROskar ThierbachDEUGermany07:00:14  +  00:00:00=31,411 
5 BELFélicien VervaeckeBELBelgium07:00:14  +  00:00:00=31,411 
6 BELRomain MaesBELBelgium07:00:24  +  00:00:10=31,399 
7 ITAVasco BergamaschiITAItaly07:00:24  +  00:00:10=31,399 
8 BELAntoine DignefBELBelgium B07:00:31  +  00:00:17=31,390 
9 GERGeorg UmbenhauerDEUGermany07:00:31  +  00:00:17=31,390 
10 FRARoger LapebieFRAFrance B07:00:37  +  00:00:23=31,382 
11 ITAAmbrogio MorelliITACadetti Italiens07:00:37  +  00:00:23=31,382 
12 ITARemo BertoniITAItaly07:00:37  +  00:00:23=31,382 
13 ITAPietro RimoldiITACadetti Italiens07:00:37  +  00:00:23=31,382 
14 ITAEugenio GestriITACadetti Italiens07:00:37  +  00:00:23=31,382 
15 ITAFrancesco CamussoITAItaly07:00:37  +  00:00:23=31,382 
16 FRAGeorges HubatzTouristes Routiers07:00:37  +  00:00:23=31,382 
17 ESPFederico EzquerraESPSpain07:00:37  +  00:00:23=31,382 
18 FRAAntonin MagneFRAFrance07:00:37  +  00:00:23=31,382 
19 ITALuigi GiacobbeITAItaly07:00:37  +  00:00:23=31,382 
20 BELJules LowieBELBelgium B07:00:37  +  00:00:23=31,382 
21 FRARené Le GrevesFRAFrance07:04:13  +  00:03:59=31,116 
22 FRARené ViettoFRAFrance07:04:13  +  00:03:59=31,116 
23 FRAMaurice PomarèdeTouristes Routiers07:04:13  +  00:03:59=31,116 
24 FRARené BernardTouristes Routiers07:04:13  +  00:03:59=31,116 
25 SUIKurt StettlerCHESwitzerland07:04:13  +  00:03:59=31,116 
26 FRACharles BertyTouristes Routiers07:04:13  +  00:03:59=31,116 
27 FRARené DebenneFRAFrance07:04:19  +  00:04:05=31,109 
28 GERBruno RothDEUGermany B07:04:19  +  00:04:05=31,109 
29 SUILéo AmbergCHESwitzerland07:04:19  +  00:04:05=31,109 
30 FRAGeorges SpeicherFRAFrance07:04:19  +  00:04:05=31,109 
31 FRAPierre-Marie CloarecTouristes Routiers07:04:19  +  00:04:05=31,109 
32 FRABenoit FaureTouristes Routiers07:04:19  +  00:04:05=31,109 
33 FRAPaul ChocqueTouristes Routiers07:05:50  +  00:05:36=30,998 
34 BELEdgard De CaluweBELBelgium07:06:57  +  00:06:43=30,917 
35 FRAAndré LeducqFRAFrance07:06:57  +  00:06:43=30,917 
36 ESPDemetrio VicenteESPSpain B07:07:59  +  00:07:45=30,842 
37 BELSylvère MaesBELBelgium B07:07:59  +  00:07:45=30,842 
38 FRALouis ThiétardTouristes Routiers07:07:59  +  00:07:45=30,842 
39 ESPAntonio PriorESPSpain07:07:59  +  00:07:45=30,842 
40 ITADante GianelloTouristes Routiers07:07:59  +  00:07:45=30,842 
41 FRAJean FontenayFRAFrance B07:07:59  +  00:07:45=30,842 
42 ESPSalvador CardonaESPSpain07:07:59  +  00:07:45=30,842 
43 ESPVicente BacheroESPSpain B07:07:59  +  00:07:45=30,842 
44 ITARené-Paul CoralliniTouristes Routiers07:07:59  +  00:07:45=30,842 
45 GERFerdinand IckesDEUGermany B07:07:59  +  00:07:45=30,842 
46 SUIFritz HartmannCHESwitzerland07:07:59  +  00:07:45=30,842 
47 FRAGabriel RuozziTouristes Routiers07:07:59  +  00:07:45=30,842 
48 FRAHonore GranierTouristes Routiers07:07:59  +  00:07:45=30,842 
49 FRAPierre CoganTouristes Routiers07:07:59  +  00:07:45=30,842 
50 FRAMaurice ArchambaudFRAFrance07:08:58  +  00:08:44=30,772 
51 GERGeorge HaendelDEUGermany B07:08:58  +  00:08:44=30,772 
52 GERGeorg StachDEUGermany B07:08:58  +  00:08:44=30,772 
53 GERKurt StöpelDEUGermany07:08:58  +  00:08:44=30,772 
54 BELHenri GarnierBELBelgium07:08:58  +  00:08:44=30,772 
55 ESPFrancisco CepedaESPSpain B07:08:58  +  00:08:44=30,772 
56 FRAJulien MoineauFRAFrance B07:09:41  +  00:09:27=30,720 
57 BELLouis HardiquestBELBelgium07:09:41  +  00:09:27=30,720 
58 GEREmil KijewskiDEUGermany07:10:41  +  00:10:27=30,649 
59 FRAJean PhilipTouristes Routiers07:10:41  +  00:10:27=30,649 
60 FRACharles PelissierFRAFrance B07:10:41  +  00:10:27=30,649 
61 FRAFernand FayolleTouristes Routiers07:10:41  +  00:10:27=30,649 
62 ITAOreste BernardoniTouristes Routiers07:13:02  +  00:12:48=30,483 
63 FRAJules MervielFRAFrance07:13:14  +  00:13:00=30,469 
64 ESPIsidro FiguerasESPSpain07:13:14  +  00:13:00=30,469 
65 GERKarl HeideDEUGermany07:13:14  +  00:13:00=30,469 
66 FRAGeorges LachatTouristes Routiers07:13:14  +  00:13:00=30,469 
67 GERAnton HodeyDEUGermany07:13:35  +  00:13:21=30,444 
68 FRAJoseph MauclairTouristes Routiers07:15:24  +  00:15:10=30,317 
69 ITAAldo BertoccoTouristes Routiers07:15:24  +  00:15:10=30,317 
70 FRARobert RenonceTouristes Routiers07:15:24  +  00:15:10=30,317 
71 ESPThéodore LadronTouristes Routiers07:15:24  +  00:15:10=30,317 
72 ESPManuel GarciaTouristes Routiers07:15:49  +  00:15:35=30,288 
73 ESPEmiliano AlvarezESPSpain07:16:26  +  00:16:12=30,245 
74 GERWilly KutschbachDEUGermany07:16:26  +  00:16:12=30,245 
75 FRAClément BistagneTouristes Routiers07:20:47  +  00:20:33=29,947 
76 ITAOrlando TeaniITACadetti Italiens07:24:37  +  00:24:23=29,688 
77 LUXJosy KrausTouristes Routiers07:24:37  +  00:24:23=29,688 
78 ESPMariano CañardoESPSpain07:24:37  +  00:24:23=29,688 
79 ITAAdriano VignoliITAItaly07:24:37  +  00:24:23=29,688 
80 ESPVicente TruebaESPSpain07:24:37  +  00:24:23=29,688 
81 ITARafaële Di PacoITAItaly07:24:37  +  00:24:23=29,688 
82 FRAPierre JanvierTouristes Routiers07:27:28  +  00:27:14=29,499 
83 GEROtto WeckerlingDEUGermany07:27:28  +  00:27:14=29,499 
84 FRASezny Le RouxTouristes Routiers07:27:28  +  00:27:14=29,499 


Todays birthdays.

1877  Antoine Perrichon
1878  Auguste Berthault
1911  Théo Herckenrath
1924  Carlo Lafranchi
1931  Armand Di Caro
1937  Jean-Claude Lebaube
1951  Giovanni Battaglin
1961  Pascal Jules
1962  Jean-Claude Leclercq
1976  Janek Tombak
1978  Francisco Pérez
1983  Dries Devenyns




Visits: